www.pogodaiklimat.ru

ПОГОДА в Сочи аэропорту (Адлер)

  • Прогноз погоды в Сочи аэропорту (Адлер)
  • Монитор погоды в Сочи аэропорту (Адлер)
  • Климат города

АРХИВ ПОГОДЫ в Сочи аэропорту (Адлер)

Время (UTC), дата Ветер
(напр.,м/с)
 
Видим.   Явления Облачность Т
(С)
Тd
(С)
f
(%)
Тe
(С)
Тes
(С)
Комфортность P
(гПа)
Po
(гПа)
Тmin
(С)
Tmax
(С)
R
(мм)
S
(см)
12 15.01 ЮВ 3 20 км 9/0
[Ci fib]
+10.4 +0.6 51 +9 +10 1015.9 1014.1
15 15.01 В 3 4000 м 3/0
[Ci fib]
+6.9 +2.3 72 +4 +4 1017.2 1015.3 +11.5
18 15.01 В 5 4000 м ясно +4.2 +0.5 77 -1 -1 1018.5 1016.6
21 15.01 В 5 4000 м 8/0
[Ac trans Ci fib]
+4.4 -1.7 65 -0 -0 1019.3 1017.4
00 16.01 В 5 4000 м 10/0
[Ac trans Ci fib]
+5.0 -2.6 58 +1 +1 1020.4 1018.5
03 16.01 В 6 4000 м 10/0
[Ac und]
+5.5 -1.9 59 +1 +1 1020.8 1018.9 +3.3
06 16.01 СВ 2 10 км слабый ливневой дождь 10/10 1230 м
[Cb cap]
+5.9 +1.7 74 +4 +4 1023.3 1021.4
09 16.01 СВ 4 20 км {ливн. осадки} 9/9 1470 м
[Cb cap]
+8.9 +2.9 66 +6 +6 1022.5 1030.7
12 16.01 В 2 20 км 9/0
[Ac trans Ci fib]
+13.0 +2.3 48 +13 +14 1021.0 1019.2
15 16.01 СВ 2 4000 м 9/0
[Ac trans Ci fib]
+8.1 +2.1 66 +6 +6 1020.6 1018.8 +14.0
18 16.01 В 5 4000 м 10/0
[Ac und]
+7.3 +2.3 71 +4 +4 1019.8 1017.9
21 16.01 В 4 4000 м 10/0
[Ac und]
+7.9 +1.5 64 +5 +5 1019.7 1017.9
00 17.01 СВ 4 4000 м слабый ливневой дождь 10/5 1500 м
[Cb cap Ac und]
+7.1 +1.9 69 +4 +4 1021.7 1019.8
03 17.01 В 5 4000 м {ливн. осадки} 9/3 1500 м
[Sc Ac trans]
+7.5 +2.1 69 +4 +4 1020.0 1018.1 +5.1
06 17.01 СВ 4 20 км {ливн. осадки} 10/0
[Ac und]
+9.8 +1.7 57 +7 +8 1021.0 1019.2
09 17.01 В 2 20 км 10/0
[Ac und]
+10.7 +5.9 72 +10 +11 1022.1 1020.3
12 17.01 СВ 4 20 км 9/0
[Ac trans]
+10.5 +4.5 66 +8 +9 1021.5 1019.7
15 17.01 В 5 4000 м 9/0
[Ac trans]
+9.9 +3.8 66 +7 +7 1021.5 1019.7 +12.2
18 17.01 СВ 4 4000 м 8/0
[Ac trans]
+8.6 +0.9 58 +6 +6 1021.5 1019.7
21 17.01 штиль 0 4000 м 8/0
[Ac trans]
+8.7 +4.0 72 +8 +8 1021.1 1019.3
00 18.01 штиль 0 4000 м 8/0
[Ac trans]
+7.5 +4.5 81 +7 +7 1021.5 1019.6
03 18.01 штиль 0 4000 м 10/0
[Cs]
+5.6 +2.7 82 +5 +5 1020.1 1018.2 +4.2
06 18.01 СВ 2 20 км 8/0
[Ac trans Ci fib]
+5.8 +2.4 79 +3 +4 1020.4 1018.5 +3.7
09 18.01 ЮЗ 1 20 км 9/0
[Ac trans Ci fib]
+12.7 +3.6 54 +13 +17 1020.0 1018.2
12 18.01 З 3 20 км 10/1 1500 м
[Cu med, cong Ci fib]
+11.1 +6.2 72 +9 +10 1019.3 1017.5
15 18.01 З 1 4000 м 10/8
[Cb cap Ac trans Ci fib]
+9.3 +7.1 86 +9 +9 1019.8 1018.0 +14.0
18 18.01 СВ 1 4000 м 10/0
[Ac und]
+6.4 +4.6 88 +5 +5 1021.0 1019.1
21 18.01 В 4 4000 м слабый ливневой дождь 10/10 1500 м
[Cb cap]
+7.7 +4.0 77 +4 +4 1021.8 1020.0
00 19.01 СВ 4 4000 м слабый ливневой дождь 10/10 1380 м
[Cb cap]
+7.0 +5.6 91 +3 +3 1022.4 1020.5
03 19.01 СВ 4 4000 м слабый ливневой дождь 10/10 840 м
[Cb cap]
+6.6 +6.2 97 +3 +3 1023.3 1021.4 +6.3 1
06 19.01 В 4 4000 м слабый ливневой дождь 10/10 1000 м
[Cb cap]
+7.7 +6.4 91 +4 +4 1024.2 1022.4
09 19.01 В 4 10 км слабый ливневой дождь 10/10 840 м
[Cb cap]
+7.7 +6.2 90 +4 +4 1024.8 1023.0
12 19.01 В 2 10 км слабый ливневой дождь 10/10 750 м
[Cb cap]
+7.9 +6.4 90 +6 +6 1024.2 1022.4
15 19.01 В 3 4000 м слабый ливневой дождь 10/10 400 м
[Cb cap]
+7.5 +6.2 91 +5 +5 1024.7 1022.9 +8.4 3
18 19.01 В 2 4000 м слабый ливневой дождь 10/10 240 м
[Cb cap]
+6.4 +5.7 95 +4 +4 1025.0 1023.1
21 19.01 СВ 2 4000 м {ливн. осадки} 10/10 450 м
[Cb cap]
+6.0 +4.1 88 +4 +4 1025.0 1023.1
00 20.01 С 3 4000 м ливневой дождь 10/10 480 м
[Cb cap]
+5.4 +4.5 94 +2 +2 1025.5 1023.6
03 20.01 В 3 4000 м слабый ливневой дождь 10/10 1020 м
[Cb cap]
+4.8 +3.6 92 +1 +1 1025.7 1023.8 +4.3 14
06 20.01 В 4 10 км слабый ливневой дождь 10/10 480 м
[Cb cap]
+4.8 +3.8 93 0 0 1026.9 1025.0 +4.2
09 20.01 ЮВ 6
{11}
10 км {ливн. осадки} 8/8 540 м
[Cb cap]
+7.7 +4.5 80 +4 +4 1027.0 1025.1
12 20.01 ЮВ 4-10
{11}
10 км {ливн. осадки} 9/9 480 м
[Cb cap]
+7.1 +3.8 80 +4 +4 1026.4 1024.5
15 20.01 Ю 4 4000 м слабый ливневой дождь 10/10 420 м
[Cb cap]
+6.7 +5.1 90 +3 +3 1026.6 1024.7 +8.6 3
18 20.01 З 4 4000 м слабый ливневой дождь 10/10 420 м
[Cb cap]
+5.0 +2.5 84 +1 +1 1027.9 1026.0
21 20.01 З 3 4000 м {ливн. осадки} 10/10 570 м
[Sc]
+4.4 +1.1 79 +1 +1 1028.5 1026.6
00 21.01 СЗ 3 4000 м {ливн. осадки} 10/10 1080 м
[Sc]
+4.0 +2.0 87 0 0 1028.3 1026.4
03 21.01 С 1 4000 м 9/9 800 м
[Sc]
+3.7 +0.8 81 +2 +2 1028.4 1026.5 +3.2 2
06 21.01 З 4 10 км 10/10 800 м
[Sc]
+3.6 -1.4 70 -1 -1 1029.2 1027.3
09 21.01 С 3 10 км 10/10 960 м
[Sc]
+3.6 -2.0 67 0 0 1029.7 1027.8
12 21.01 СВ 2 10 км 10/10 1200 м
[Sc]
+4.2 -1.9 64 +2 +2 1028.5 1026.6
15 21.01 СВ 3 4000 м 10/10 1380 м
[Sc]
+3.4 -0.1 78 -0 -0 1028.9 1027.0 +4.7
18 21.01 В 2 4000 м 10/10 1200 м
[Sc]
+3.4 -1.3 71 +1 +1 1029.2 1027.3
21 21.01 В 3 4000 м {ливн. осадки} 10/10 1200 м
[Sc]
+2.8 +0.7 86 -1 -1 1029.8 1027.9
00 22.01 штиль 0 4000 м слабый ливневой дождь 10/10 1000 м
[Cb cap]
+3.0 +0.6 84 +2 +2 1029.5 1027.6
03 22.01 СВ 3 4000 м слабый ливневой дождь 10/10 1200 м
[Cb cap]
+2.1 +1.3 94 -2 -2 1029.3 1027.4 +1.9 3
06 22.01 В 3 10 км слабый ливневой дождь 10/10 600 м
[Cb cap]
+2.4 +1.4 93 -2 -2 1029.1 1027.2 +1.7
09 22.01 В 3 10 км слабый ливневой дождь 10/10 480 м
[Cb cap]
+3.7 +1.9 88 -0 -0 1029.5 1027.6

 

Местоположение метеостанции Сочи аэропорт (Адлер) (Краснодарский край, Россия): широта 43.43 долгота 39.90 высота над уровнем моря 15 м.

В архиве по умолчанию представлена погода в Сочи аэропорту (Адлер) за последнюю неделю. Архивные данные за месяц целиком и за предыдущие месяцы, начиная с января 2011 года, Вы можете получить, выбрав интересующий диапазон дат из раскрывающегося списка и нажав кнопку "Ввод!".

Внимание! Время в таблицах - всемирное. Для получения местного времени необходимо прибавить поправку, которая в Сочи аэропорту (Адлер) равна 3 ч.

Ветер - указаны скорость ветра в м/с - средняя за 10 мин, порывы в срок и между сроками (в фигурных скобках) и направление, откуда дует ветер: С - северный, СВ - северо-восточный, В - восточный, ЮВ - юго-восточный, Ю - южный, ЮЗ - юго-западный, З - западный, СЗ - северо-западный.
Видимость - горизонтальная дальность видимости в метрах или километрах. При видимости от 1 до 10 км при отсутствии осадков обычно наблюдается дымка, при ухудшении видимости до 1 км и менее - туман. В сухую погоду видимость может ухудшаться дымом, пылью или мглою.
Явления - указаны атмосферные явления, наблюдавшиеся в срок или в последний час перед сроком; фигурными скобками обозначены явления, наблюдавшиеся между сроками (за 1-3 часа до срока); квадратными скобками обозначены град или гололедные отложения с указанием их диаметра в мм.
Облачность - указаны через наклонную черту общая и нижняя облачность в баллах и высота нижней границы облаков в метрах; квадратными скобками обозначены формы облаков: Ci - перистые, Cs - перисто-слоистые, Cc - перисто-кучевые, Ac - высококучевые, As - высокослоистые, Sc - слоисто-кучевые, Ns - слоисто-дождевые, Cu - кучевые, Cb - кучево-дождевые. Подробнее классификацию облаков см. в Атласе облаков (PDF).
T - Температура воздуха - температура, измеренная на высоте 2 м над землей.
Td - Температура точки росы - температура, при понижении до которой содержащийся в воздухе водяной пар достигнет насыщения.
f - Относительная влажность воздуха - влажноcть воздуха, измеренная на высоте 2 м над землей.
Te - Эффективная температура - температура, которую ощущает одетый по сезону человек в тени. Характеристика душности погоды. При расчете учитывается влияние влажности воздуха и скорости ветра на теплоощущения человека.
Tes - Эффективная температура на солнце - температура, которую ощущает человек, с поправкой на солнечный нагрев. Характеристика знойности погоды. Зависит от высоты солнца над горизонтом, облачности и скорости ветра. Ночью, в пасмурную погоду, а также при ветре 12 м/с и более поправка равна нулю.
P - Атмосферное давление - приведенное к уровню моря атмосферное давление.
Po - Атмосферное давление - измеренное на уровне метеостанции атмосферное давление.
Tmin - Минимальная температура - минимум температуры воздуха на высоте 2 м над землей.
Tmax - Максимальная температура - максимум температуры воздуха на высоте 2 м над землей.
R - Количество осадков - Количество выпавших осадков, мм. При наведении курсора мыши на число - период времени, за который выпало указанное количество осадков.
S - Снежный покров - Высота снежного покрова, см. При наведении курсора мыши на число - состояние снежного покрова и степень покрытия местности в баллах.